Wind_Speed
7 7 7 7 7 7 7 7 8 8 8 9 9 9 10 10 10 10 9 10 11 12 13 15 16 17 17 16 15 13 12 11 10 11 11 11 11 12 12 12 11 10 10 11 11 10 9 8 7 6 6 7 6 6 7 7 8 9 9 10 10 10 10 10 11 11 12 13 14 14 15 16 18 20 22 23 23 22 22 21 19 19 18 17 18 19 19 19
8 8 8 8 8 9 9 9 9 10 10 10 9 9 9 10 10 10 9 9 10 10 11 13 14 14 15 16 15 14 13 12 12 12 11 11 11 12 12 13 12 12 12 13 13 12 11 9 7 5 5 5 5 5 6 7 7 8 8 9 10 11 11 11 12 12 13 14 15 17 17 18 20 22 23 24 24 24 23 22 20 19 18 18 19 20 20 21
8 9 9 10 10 10 10 11 11 11 11 11 10 10 9 10 10 10 10 9 10 10 10 11 12 12 13 14 15 14 14 12 12 12 11 10 10 11 12 12 12 12 12 13 13 13 12 10 9 7 4 3 4 5 5 5 6 6 7 9 10 11 12 13 14 14 15 16 17 18 19 20 22 24 25 26 26 25 24 22 20 19 19 20 21 22 22 22
9 10 10 11 11 12 12 13 13 13 12 12 12 11 10 10 10 10 10 10 10 10 10 10 10 11 11 12 13 14 13 12 13 12 11 10 10 10 11 11 11 11 12 12 13 13 13 11 10 8 6 4 4 6 5 4 5 6 7 8 9 11 12 13 14 15 16 17 18 20 22 23 23 25 26 26 27 25 23 21 20 20 20 21 23 23 24 24
10 10 11 11 12 13 13 14 14 14 13 13 13 12 12 11 10 10 11 11 11 10 11 10 10 10 10 11 11 12 12 12 12 11 10 10 10 10 10 10 11 11 12 12 13 14 13 12 11 9 8 5 5 5 4 4 5 6 6 8 9 11 12 13 13 14 16 17 19 21 23 24 24 25 25 26 25 24 22 21 21 21 21 23 24 25 25 25
11 11 12 12 13 13 14 14 14 15 14 14 14 14 14 13 12 11 11 11 11 11 11 11 11 10 10 10 11 11 11 11 10 10 10 10 10 10 10 10 10 11 11 12 14 14 13 12 10 9 8 6 5 5 4 5 6 6 6 8 9 10 11 11 13 14 16 17 18 20 22 23 24 25 25 25 24 22 22 22 22 21 23 24 25 26 26 27
12 12 12 13 13 13 14 14 15 15 16 16 15 15 15 14 13 12 12 12 12 12 12 12 11 11 11 10 11 10 10 10 9 9 10 9 9 9 9 10 10 10 11 12 13 12 12 11 10 9 8 7 6 6 6 6 7 5 5 6 8 9 10 12 13 14 15 17 18 20 21 22 23 24 24 24 23 23 24 23 22 23 24 25 25 25 26 27
13 13 13 13 13 14 14 14 15 16 16 17 16 15 15 15 15 14 13 13 13 12 12 12 12 11 11 11 11 11 11 10 10 10 9 10 10 9 9 10 10 10 10 11 11 11 12 10 10 8 7 8 8 7 8 7 7 6 5 6 8 10 11 13 14 14 15 16 18 19 20 21 22 23 24 23 23 24 24 23 24 25 26 26 25 26 27 28
13 13 13 13 13 14 14 14 15 16 16 17 16 15 14 15 15 15 14 13 13 13 12 12 12 12 11 12 12 12 12 11 11 11 10 10 10 10 10 10 10 10 10 11 11 12 12 12 11 10 8 8 9 9 9 8 8 8 8 7 9 11 13 14 14 15 16 16 18 19 20 21 21 23 24 22 22 23 24 25 27 28 28 27 27 27 27 28
13 13 13 13 13 13 14 14 14 15 15 16 16 15 14 14 15 15 14 13 13 13 13 12 12 12 12 12 12 13 13 13 12 12 12 12 11 11 11 11 11 10 11 11 11 12 12 13 12 11 9 9 10 10 8 9 10 10 10 8 9 12 14 15 15 15 16 16 17 19 20 21 22 24 23 20 21 23 25 28 30 31 30 29 29 29 28 28
14 14 14 13 13 13 13 14 14 14 14 14 14 15 14 14 14 14 13 13 14 13 13 13 13 13 12 12 12 13 13 13 13 13 13 13 13 13 13 13 12 11 11 11 12 12 12 13 13 12 11 10 11 11 9 9 11 11 11 10 10 12 12 13 14 14 15 16 17 18 21 22 23 24 20 19 23 25 28 30 32 32 31 31 31 31 30 30
16 15 15 15 14 14 14 14 14 14 13 13 13 14 14 14 14 14 13 13 13 14 13 14 14 14 14 13 13 13 13 13 14 14 14 14 14 15 15 14 13 12 12 12 13 13 13 13 13 13 12 12 12 11 10 10 12 12 12 11 11 11 11 12 12 13 14 16 16 17 23 25 23 22 20 22 27 28 31 32 32 32 32 33 34 33 32 31
18 17 17 16 16 15 15 15 14 14 14 13 13 14 14 15 15 15 14 13 13 14 14 14 14 15 15 14 14 14 14 14 14 15 14 14 15 16 16 15 15 14 12 13 13 13 14 14 14 14 13 13 12 12 11 12 13 12 13 13 12 12 10 10 11 12 13 15 15 16 23 25 21 21 21 25 28 29 32 32 31 32 33 35 35 34 33 33
20 20 19 18 18 17 17 16 16 15 15 14 14 14 14 14 15 16 15 15 14 14 14 15 15 16 16 15 15 15 14 14 14 14 14 14 16 17 17 17 16 15 14 13 14 14 14 15 15 14 14 14 14 13 13 13 13 13 13 12 14 15 13 13 14 14 13 15 16 16 24 26 22 21 25 27 29 30 32 32 33 34 35 36 35 35 34 34
22 22 21 21 20 19 19 18 18 17 16 15 15 15 15 15 16 16 16 16 15 15 15 15 16 17 17 16 15 14 14 14 13 14 15 16 17 17 17 18 18 17 16 14 15 15 15 15 16 14 14 15 15 14 14 15 14 13 13 13 16 16 14 14 14 14 15 16 19 18 24 28 25 24 28 30 32 33 35 36 36 37 37 37 36 35 35 36
23 23 23 23 22 22 21 20 20 19 18 17 16 16 17 17 16 17 17 17 16 16 16 16 16 18 18 17 15 14 13 14 14 16 18 19 19 18 18 19 19 19 18 16 15 15 15 16 16 14 14 15 16 15 16 16 14 13 14 16 17 18 18 16 12 14 15 17 21 21 26 30 27 26 30 33 35 36 38 38 38 39 38 38 37 36 37 38
24 24 24 24 24 24 23 23 22 21 20 19 18 18 18 18 18 18 18 17 17 17 17 17 17 18 18 17 16 15 15 17 18 20 21 21 20 19 19 20 20 20 19 17 16 16 15 16 15 14 15 16 16 16 16 16 15 15 16 18 18 19 21 19 15 15 15 17 22 25 29 31 28 28 31 33 36 38 39 38 38 39 39 39 38 38 38 39
25 25 25 25 25 25 25 25 25 24 23 22 21 20 19 20 20 19 19 19 18 17 18 17 17 18 18 17 19 19 19 21 21 21 22 22 22 21 21 20 20 21 20 18 17 17 16 16 16 16 16 16 16 16 16 17 18 18 19 21 21 20 21 20 18 17 17 20 23 26 30 30 29 29 31 34 36 38 40 38 38 38 38 37 37 38 38 40
25 25 26 26 26 26 26 26 26 26 25 24 23 23 22 22 21 22 21 20 19 18 18 18 18 20 20 20 22 23 23 23 22 23 23 24 23 22 22 21 21 22 21 20 19 18 19 17 16 18 17 16 17 16 16 18 19 19 20 22 23 23 23 19 18 20 22 24 25 27 29 31 31 30 30 33 36 39 40 38 37 36 35 35 35 36 37 39
26 27 27 27 27 27 27 27 27 27 27 26 25 25 24 24 24 24 23 22 22 21 20 21 22 22 22 23 24 24 25 24 24 24 25 25 24 24 23 22 22 23 22 21 20 20 20 18 18 20 18 17 18 17 17 19 20 20 21 22 23 25 24 19 19 22 24 27 30 29 31 33 34 32 31 33 37 38 37 35 34 34 33 33 34 35 37 38
28 28 28 28 28 28 28 28 27 27 27 27 27 26 27 27 26 26 27 26 25 24 24 23 24 24 24 25 26 26 27 26 26 25 26 26 25 24 23 22 22 23 23 22 22 22 21 20 20 20 19 19 19 19 20 20 21 22 22 23 25 26 25 22 21 23 24 29 34 33 36 38 36 34 31 30 32 30 29 29 30 30 31 32 33 34 35 37
29 29 28 28 28 28 29 28 28 28 28 27 27 28 28 28 28 29 30 30 28 27 27 26 25 25 25 26 27 28 28 27 25 24 25 24 23 23 22 21 22 23 23 23 23 23 23 22 20 20 20 21 21 21 22 22 22 23 23 25 26 26 26 23 22 24 26 32 37 38 41 43 40 35 28 23 25 24 24 26 26 28 30 30 31 32 35 38
30 30 29 29 29 29 29 29 29 28 28 27 27 28 29 29 30 30 32 34 33 30 29 29 28 26 26 28 29 28 28 26 23 22 21 20 20 20 19 20 22 23 24 24 24 24 25 22 21 22 22 22 21 22 23 23 22 23 24 26 27 26 24 23 24 26 28 32 37 40 46 49 42 33 23 20 25 26 25 27 28 29 30 30 31 32 35 37
32 31 30 30 29 29 30 29 29 29 28 28 28 29 29 30 31 32 33 35 36 35 32 31 29 28 28 29 29 28 26 22 19 18 17 17 18 17 19 20 21 24 24 25 25 26 27 24 25 25 23 22 22 23 25 24 22 23 24 27 28 24 21 24 27 29 32 32 33 40 47 42 29 25 27 26 27 27 27 30 31 31 31 31 32 32 32 35
32 32 32 32 31 30 30 30 30 29 29 29 29 30 30 31 32 32 32 34 37 37 35 33 30 27 28 28 27 24 20 16 16 16 17 17 17 17 19 19 21 24 24 25 26 28 29 27 26 24 22 22 24 25 25 23 24 24 24 26 25 22 22 23 26 32 33 28 26 33 30 17 10 23 37 32 25 27 30 30 29 28 29 29 29 29 30 33
34 33 34 34 33 32 32 33 31 30 31 30 31 31 31 32 32 32 31 30 33 36 35 31 27 24 25 25 21 18 16 15 17 18 18 18 18 19 19 20 22 23 24 26 26 27 29 28 26 24 24 24 25 27 24 22 24 24 25 24 22 23 23 24 28 31 29 25 27 29 23 18 23 36 41 31 25 30 30 27 25 24 26 27 27 27 28 31
36 36 36 36 35 34 35 35 33 33 33 32 32 32 32 32 31 31 28 20 21 28 28 25 21 20 20 18 17 17 16 17 17 18 19 19 20 20 21 23 24 24 25 26 25 26 27 28 27 27 27 26 26 26 22 20 22 24 25 22 22 24 23 25 30 30 32 34 36 35 28 29 36 41 38 31 28 31 27 23 24 24 26 28 27 28 28 28
38 37 38 38 37 36 37 37 36 36 35 35 35 34 32 31 30 29 20 8 8 15 18 18 17 18 19 19 20 22 22 21 20 19 20 21 21 22 23 25 25 26 27 26 28 29 29 31 32 30 28 27 27 24 21 21 23 25 25 23 24 24 23 28 30 32 37 33 33 39 28 20 30 39 37 33 31 31 26 24 27 28 28 29 29 29 27 26
39 38 38 38 38 37 37 38 38 37 37 37 36 34 32 30 29 23 12 6 6 12 17 20 21 21 22 23 23 23 24 23 23 22 22 21 22 23 24 25 26 27 27 28 32 33 32 33 32 30 29 28 25 23 22 23 23 25 24 23 24 23 25 29 30 34 33 22 27 41 28 12 22 39 35 28 28 29 28 31 34 33 32 32 31 28 27 26
40 40 39 39 38 36 36 37 37 37 37 37 35 34 31 28 25 16 8 8 11 14 18 21 24 24 24 25 25 25 26 25 25 25 23 23 24 24 25 26 27 28 29 30 33 35 35 35 33 30 28 26 24 24 24 23 23 24 24 24 24 23 26 29 31 31 20 13 24 31 23 14 15 27 28 26 30 28 30 39 39 35 33 32 30 28 26 27
41 41 41 41 39 37 37 36 36 36 36 36 34 32 29 26 22 12 8 14 20 21 23 24 27 28 27 28 27 26 26 25 25 25 26 26 26 27 27 27 27 28 31 33 34 35 34 33 32 29 26 25 25 25 25 24 24 24 23 24 22 18 20 21 20 16 5 8 18 17 14 15 17 23 31 36 35 27 34 43 38 32 31 30 29 26 26 27
41 41 41 42 41 39 38 36 36 35 35 35 32 30 27 22 21 21 18 19 16 13 17 20 22 23 23 25 26 24 24 24 25 25 27 29 29 31 30 29 28 25 25 29 30 33 36 34 29 27 28 27 27 26 25 25 24 24 24 22 14 7 9 8 5 4 6 12 19 16 13 17 32 43 44 38 29 28 40 41 32 31 31 29 27 24 25 27
43 43 42 42 42 40 38 37 36 35 34 33 30 29 26 18 19 29 31 25 17 13 15 16 17 19 21 25 26 23 24 26 26 26 28 30 32 33 32 32 31 28 27 28 28 28 32 33 29 26 27 25 24 25 24 23 21 21 23 20 11 1 2 4 4 4 8 15 20 17 13 20 34 42 35 25 28 39 41 34 31 34 31 27 26 23 27 28
43 44 44 44 43 41 39 37 36 35 33 32 30 28 27 23 22 28 32 33 30 28 28 25 25 26 26 27 27 25 26 27 28 28 30 32 34 36 36 35 33 33 33 31 28 24 20 23 23 21 19 17 17 18 18 18 17 18 21 20 17 14 8 5 4 3 6 18 24 12 8 15 24 32 36 37 44 43 34 32 36 36 30 27 25 26 29 30
43 44 45 45 44 42 39 37 37 36 32 33 32 31 36 37 33 33 36 37 35 35 35 33 33 31 29 30 30 29 28 28 30 31 32 35 37 38 38 37 34 35 34 28 24 20 18 22 23 19 19 18 16 15 16 17 18 19 21 21 23 24 20 13 14 16 12 17 21 14 16 31 42 51 56 49 44 35 29 38 41 36 32 27 27 31 32 31
44 44 45 45 44 41 39 38 37 35 34 34 33 40 50 50 43 40 38 34 32 32 33 33 33 32 32 33 34 33 31 31 33 32 33 37 40 43 43 38 36 36 36 32 26 18 16 22 22 16 17 19 18 18 18 19 19 18 20 23 25 23 21 17 16 19 11 7 17 19 27 46 50 52 52 40 36 35 33 40 43 37 33 29 31 35 33 33
43 45 47 46 42 39 40 40 37 35 35 35 40 51 58 54 50 47 41 36 34 32 31 31 31 29 30 31 33 33 32 33 35 35 36 36 34 40 42 39 38 38 35 32 31 27 24 29 31 24 21 22 21 20 22 25 25 23 23 23 22 18 17 16 8 7 3 3 15 20 28 43 36 33 46 46 40 39 36 42 47 41 34 34 37 37 35 34
42 44 47 46 41 39 40 40 38 38 36 38 49 57 57 54 53 50 45 43 41 37 36 37 34 32 31 31 31 29 28 33 35 35 37 36 32 34 34 30 32 33 30 27 29 30 28 28 34 33 27 25 24 23 25 28 28 30 29 25 21 14 11 14 9 4 2 2 9 15 22 41 41 35 50 53 41 38 42 49 51 43 38 40 40 39 37 35
41 44 48 46 41 39 41 40 39 38 39 46 55 58 58 58 56 52 48 46 43 41 42 43 41 37 36 35 33 30 29 33 35 34 34 34 33 35 33 28 28 27 25 25 27 30 29 23 25 30 27 22 23 28 30 31 30 30 31 31 30 22 14 16 15 9 4 3 8 11 12 36 53 45 49 52 42 43 51 54 50 44 43 45 43 41 39 37
43 45 48 47 41 39 40 40 41 42 46 55 59 59 60 59 56 53 50 47 46 45 46 46 44 41 41 41 38 36 33 32 34 35 36 36 36 37 35 33 31 27 24 23 25 29 31 27 27 31 26 22 28 32 31 30 27 27 32 34 34 30 23 20 21 23 16 5 4 3 6 39 62 55 56 58 50 52 57 55 51 48 48 48 45 44 43 42
44 47 50 48 42 39 39 42 46 49 54 60 61 60 60 58 56 55 51 47 47 47 47 47 46 45 46 45 43 40 35 35 37 37 39 43 42 40 39 35 31 26 25 25 27 30 31 32 35 36 32 33 38 37 31 28 25 25 31 34 33 32 28 17 13 25 29 18 13 4 5 45 73 64 62 62 54 56 59 55 54 54 53 52 49 49 47 45
49 51 52 48 43 40 40 45 50 52 57 61 61 60 59 58 58 56 53 50 47 47 47 48 50 50 49 48 46 43 39 39 41 41 43 46 46 45 43 38 31 26 25 26 27 29 31 32 36 40 42 42 40 36 31 29 28 28 33 36 34 33 34 25 14 19 26 27 27 13 8 47 75 65 59 60 55 59 61 58 60 60 58 56 54 52 49 45
54 54 52 48 45 41 40 45 50 54 59 60 59 58 58 58 58 56 54 52 49 49 49 50 52 52 51 50 47 46 45 44 45 47 47 48 50 48 45 42 39 34 31 30 28 28 30 33 36 39 42 40 38 38 36 32 31 34 40 43 41 40 42 39 32 26 21 22 24 10 9 48 73 63 59 60 58 62 65 64 65 63 60 59 55 52 49 44
56 54 51 50 47 43 44 50 55 57 60 59 58 58 58 57 58 58 57 55 53 52 52 53 54 52 51 50 48 49 47 43 45 49 48 49 51 49 45 43 42 40 39 36 33 29 29 33 34 29 22 21 24 25 27 32 36 40 45 44 44 46 44 42 39 30 23 31 30 11 15 52 71 64 62 62 61 66 69 66 66 63 60 59 55 52 49 44
53 53 54 53 51 49 51 55 56 57 58 58 59 60 59 59 59 59 58 58 57 55 54 53 52 51 50 49 49 50 48 46 46 47 47 49 49 47 44 41 40 41 41 39 38 35 34 35 36 27 14 10 16 16 18 26 30 34 40 40 39 42 41 42 38 28 26 35 35 27 36 61 72 66 64 67 67 69 68 64 64 62 59 58 55 51 48 45
51 53 55 56 54 55 58 58 56 56 57 57 57 58 59 61 61 59 59 60 59 57 56 54 53 52 51 50 50 50 51 50 49 49 52 51 48 45 43 39 39 39 39 39 38 38 39 41 43 42 35 34 39 39 33 29 28 32 39 39 38 39 40 40 37 36 36 27 30 48 59 64 71 71 65 66 68 66 66 64 61 60 58 57 55 52 49 46
50 54 57 56 50 50 57 61 59 59 59 57 57 59 61 62 62 60 59 60 59 56 55 55 55 55 54 55 54 53 54 53 51 54 56 54 52 48 43 42 42 41 40 38 37 39 43 45 47 50 51 51 54 53 46 42 42 45 46 46 46 43 39 39 41 48 45 24 28 60 66 58 69 77 68 65 67 65 65 63 59 58 58 56 55 52 50 48
52 55 58 58 53 52 58 62 61 59 58 58 60 61 62 62 63 62 61 59 57 55 54 55 59 60 61 59 54 52 53 53 54 58 58 56 55 51 48 48 47 46 43 38 38 40 42 46 50 51 52 54 55 53 51 49 50 52 51 53 53 47 42 44 48 55 50 37 45 68 67 62 72 77 68 63 63 63 60 58 56 56 54 52 50 50 50 48
57 57 58 59 59 60 62 63 60 54 51 54 58 60 62 64 66 65 61 57 56 56 56 58 62 63 61 59 55 53 54 54 57 61 59 56 55 52 51 50 49 49 46 43 43 40 42 49 51 49 50 53 55 53 51 51 52 54 57 61 57 52 53 55 55 56 53 53 64 70 67 71 74 68 60 53 52 56 54 51 51 48 46 45 44 45 46 44
62 62 62 62 61 61 62 61 59 57 55 53 53 58 61 62 64 64 61 59 59 60 59 60 64 63 59 56 55 58 62 62 63 61 57 53 51 49 48 47 47 46 44 44 44 42 45 50 49 46 46 51 56 53 49 50 51 51 59 66 61 55 56 58 57 58 57 60 67 67 67 74 66 51 47 47 47 50 48 45 44 41 39 40 39 40 40 38
63 60 59 61 62 63 63 62 60 60 60 58 59 65 65 63 64 63 61 62 62 62 61 61 63 60 54 53 56 61 65 63 61 59 56 56 53 49 47 46 43 41 42 43 43 44 46 47 49 45 39 46 54 45 41 45 43 45 61 72 67 60 59 60 61 63 61 62 64 62 65 69 57 45 47 51 49 48 44 40 38 35 34 35 35 37 37 36
64 58 56 58 61 62 62 63 62 61 63 65 67 70 69 68 68 62 59 62 64 63 62 62 62 56 52 55 61 64 62 58 55 55 55 57 57 53 52 50 47 47 47 44 42 43 43 44 49 43 33 41 48 39 37 34 21 33 62 72 66 60 58 59 62 63 60 60 62 61 61 62 57 52 53 51 46 44 41 37 35 34 34 35 35 36 36 36
Wind_Direction
272 280 286 294 302 310 318 324 328 330 330 331 332 331 330 329 331 335 341 348 359 7 9 9 10 14 18 21 19 18 16 14 11 13 18 12 7 13 17 21 24 24 20 16 17 16 13 3 346 331 319 312 307 304 298 291 288 286 284 280 279 281 281 277 271 269 272 276 277 279 283 288 294 298 301 303 304 305 303 300 299 300 298 295 296 297 296 294
274 280 286 293 298 305 312 318 323 327 328 328 327 327 325 323 325 327 330 332 337 349 1 3 4 6 9 14 15 14 13 12 12 11 11 7 8 12 14 18 22 22 20 17 17 17 15 8 357 343 321 310 309 307 302 297 290 284 282 280 280 283 283 280 277 273 275 278 280 283 286 289 293 295 298 299 301 303 303 302 301 300 298 296 296 296 295 293
276 281 287 292 298 303 308 313 318 323 325 325 325 323 321 318 318 320 323 325 326 328 340 353 358 357 0 5 7 8 8 8 9 7 6 5 7 13 14 16 19 19 20 17 18 19 15 8 1 357 350 330 317 311 303 297 293 288 284 283 282 281 282 280 277 275 276 279 283 287 289 290 291 292 294 298 300 301 302 303 302 299 299 299 297 296 293 291
279 283 288 293 298 302 307 311 314 318 321 323 323 322 318 314 313 315 317 318 320 321 324 334 344 347 349 352 357 0 359 2 6 3 1 2 3 11 15 14 15 17 16 17 19 17 12 7 1 356 358 349 320 311 304 293 290 291 287 285 283 281 282 282 281 279 278 279 282 285 286 288 290 291 293 295 297 299 301 301 299 299 299 298 297 294 292 290
281 284 288 293 298 302 307 310 313 316 319 320 320 320 317 313 310 310 312 313 313 315 317 320 326 333 335 338 344 349 351 354 357 358 357 357 358 5 12 12 12 13 12 15 19 16 8 3 360 356 354 347 325 308 297 289 286 289 285 282 281 280 281 283 284 282 281 281 281 283 285 288 289 290 292 293 295 298 298 296 296 297 297 296 294 293 292 291
280 283 286 291 297 302 307 310 314 315 316 317 317 317 315 312 309 307 308 308 308 309 310 311 313 316 319 322 326 332 340 341 342 348 350 351 352 357 4 5 7 7 6 12 14 11 5 358 358 356 352 349 336 315 307 301 295 293 286 280 278 277 278 283 284 283 283 282 282 283 285 286 288 290 292 292 295 296 293 291 292 294 294 294 293 293 293 292
277 281 284 288 294 300 306 310 313 315 316 316 315 315 314 311 308 305 304 303 304 305 305 304 304 305 305 307 311 315 321 325 328 333 338 342 344 348 354 356 360 359 359 6 7 4 3 360 358 356 355 357 349 332 327 319 311 311 300 287 283 279 280 283 283 282 282 282 283 283 284 287 289 290 290 291 293 291 288 289 291 294 295 295 295 295 294 292
274 278 281 285 291 297 304 309 313 315 316 315 315 314 312 311 308 304 303 301 300 302 303 301 299 298 296 296 298 301 305 311 315 317 320 326 332 337 342 346 350 351 352 355 353 356 360 359 359 358 359 360 355 343 337 332 321 320 312 296 291 288 286 283 283 283 283 285 285 284 286 287 287 288 288 289 290 289 289 289 291 295 296 296 297 296 294 291
271 274 278 282 287 292 299 306 311 313 315 316 315 313 312 311 309 306 304 303 300 300 301 301 299 294 291 289 289 292 297 301 303 304 304 308 316 322 328 335 340 343 344 343 343 347 349 350 353 355 355 357 355 345 338 336 327 324 317 304 298 294 293 292 290 289 288 288 287 286 285 284 285 284 286 290 292 291 289 287 291 295 296 296 296 296 294 291
268 272 275 278 282 287 294 301 306 310 313 314 314 313 312 311 310 309 308 306 304 302 301 300 299 296 290 286 284 285 292 296 295 296 295 295 300 306 310 318 328 334 336 337 338 339 339 341 342 343 346 348 347 341 337 336 333 328 322 318 309 299 298 297 296 293 292 290 289 288 285 286 284 282 289 299 295 290 287 287 291 295 296 295 295 295 293 290
266 268 271 274 277 281 287 294 301 305 308 311 313 312 311 311 311 309 309 309 307 305 303 301 299 296 292 288 285 284 288 291 290 290 290 287 289 294 296 302 311 322 330 333 334 334 333 330 329 334 338 337 337 334 330 331 332 328 325 327 317 307 305 300 298 297 295 293 292 291 288 284 281 287 302 302 291 288 287 289 292 294 294 294 295 295 293 289
265 265 267 269 272 276 282 289 296 300 303 305 308 309 310 311 310 309 310 310 308 307 305 303 300 296 293 290 287 285 285 285 286 286 285 283 283 286 288 290 296 306 319 327 329 331 330 327 322 324 327 327 328 327 323 321 325 324 323 326 321 316 313 304 300 297 296 294 293 294 291 287 287 300 308 295 290 291 290 291 293 293 292 292 294 294 291 289
267 266 265 266 268 271 277 284 291 296 299 301 304 305 307 308 309 309 309 309 309 307 306 305 302 299 295 293 290 288 286 283 283 282 281 281 282 282 282 283 287 293 304 317 324 328 328 326 320 317 320 322 320 316 314 312 315 317 318 321 321 322 321 315 309 302 299 294 292 289 288 298 309 307 299 290 290 291 290 292 291 290 290 291 293 292 290 289
269 268 266 265 266 268 272 279 286 293 297 299 301 302 303 305 306 306 307 308 307 307 306 305 303 300 296 295 292 288 286 282 281 279 280 283 285 284 279 277 281 285 291 303 316 323 326 325 319 313 313 318 315 308 307 307 306 308 310 314 316 319 325 326 319 314 310 298 295 283 281 305 325 309 296 293 293 292 291 292 290 290 292 293 293 291 290 290
269 269 268 267 266 266 269 275 281 288 294 297 300 301 301 302 303 304 305 306 306 305 305 303 302 298 297 297 294 289 284 280 278 278 283 287 287 285 278 274 275 279 284 292 306 317 322 322 318 311 310 314 312 304 303 304 301 301 304 307 311 313 320 326 323 319 317 303 294 281 278 301 321 312 302 299 297 297 296 295 293 294 294 294 293 291 290 289
267 269 269 269 269 268 269 273 277 282 289 293 297 300 300 300 301 302 301 302 303 304 303 302 300 299 299 298 295 291 286 281 280 282 287 288 286 284 278 271 271 274 278 284 296 309 317 319 317 310 309 311 307 302 301 300 298 298 301 304 307 309 312 321 328 320 315 303 295 287 284 299 316 314 306 302 300 299 297 296 296 296 296 294 292 291 289 288
264 265 267 269 269 270 271 273 276 280 285 289 292 296 300 299 299 299 300 300 301 302 302 301 300 299 298 298 296 295 293 289 288 288 287 285 283 282 276 269 266 268 272 277 287 300 310 317 316 312 310 308 304 301 300 299 299 299 300 302 303 305 306 311 323 318 308 299 295 289 287 301 316 313 304 301 299 297 295 295 295 294 293 292 291 290 289 289
263 263 264 266 267 269 271 273 277 279 283 287 289 291 295 296 297 298 299 298 299 301 300 299 300 299 298 298 299 299 297 293 291 290 287 284 281 279 274 267 261 262 265 270 279 290 302 312 316 312 308 306 302 300 297 297 298 297 299 301 302 303 301 306 319 316 304 295 289 284 284 298 311 307 300 297 295 294 292 292 292 290 290 291 291 290 290 289
265 264 263 263 264 266 268 271 275 278 281 285 288 290 293 294 297 298 298 296 297 298 299 298 297 297 299 299 299 298 296 294 292 289 285 282 278 275 271 264 257 257 259 264 271 280 292 304 312 310 306 305 302 298 294 295 296 295 296 297 299 300 299 308 317 310 304 295 288 287 288 295 304 305 301 295 292 291 289 289 289 288 289 290 291 290 290 290
266 265 265 265 264 265 267 269 272 275 278 282 285 288 290 292 295 297 295 294 296 297 297 296 294 295 297 297 297 297 296 294 291 288 284 281 277 273 269 261 254 251 254 259 265 273 284 295 305 306 305 304 303 299 297 298 295 291 291 292 294 294 295 305 308 304 305 298 295 297 295 296 300 306 307 297 291 289 290 292 290 289 290 289 290 290 290 290
266 266 266 267 267 267 268 269 271 274 276 279 283 286 289 291 293 295 293 291 293 294 293 293 294 295 296 296 296 296 295 293 290 286 281 277 275 270 266 260 252 249 250 254 259 269 279 288 298 302 301 301 300 297 298 298 294 290 289 290 291 290 295 300 298 300 305 299 298 301 297 295 297 305 311 301 292 296 299 297 293 291 290 289 289 289 289 289
266 266 267 268 269 270 270 271 272 274 276 279 282 285 289 290 291 293 292 289 287 288 290 291 292 294 295 294 293 294 292 291 288 281 276 273 270 266 262 256 250 247 248 250 256 266 276 284 291 298 298 295 294 294 297 298 293 288 285 287 287 291 298 297 294 300 305 300 300 302 298 295 297 303 312 308 300 308 308 299 294 291 289 289 290 290 288 286
266 267 268 269 269 270 271 272 273 275 277 279 282 285 287 289 290 292 293 292 286 284 285 287 289 291 291 290 290 290 289 288 284 277 273 270 266 262 257 252 247 245 246 250 256 266 275 282 289 296 296 291 288 291 295 296 290 283 281 283 286 293 299 295 294 299 302 300 301 303 298 294 298 301 309 316 312 316 314 303 298 294 294 295 292 289 286 284
266 268 268 268 269 270 272 273 274 276 278 280 283 285 287 289 291 291 293 293 288 283 283 285 286 287 287 286 286 285 284 282 275 271 270 266 263 258 251 247 244 243 247 252 258 266 272 279 287 293 293 286 284 288 293 294 288 280 277 280 285 291 291 290 296 299 301 300 300 306 302 297 300 303 310 317 314 319 319 308 304 302 301 298 292 290 289 286
266 267 268 269 270 271 272 272 273 275 278 281 283 286 288 290 292 293 295 296 291 284 282 284 284 283 282 280 280 279 275 269 265 268 270 267 263 255 248 245 244 245 250 254 260 267 271 278 286 291 288 283 282 286 291 291 287 279 276 280 285 289 286 287 295 300 303 302 302 311 311 300 291 295 305 314 312 318 321 313 312 310 303 298 295 293 289 285
264 266 269 270 271 272 273 273 274 276 277 280 282 284 287 289 292 294 296 297 291 285 283 283 280 276 274 271 270 267 261 261 264 267 269 266 262 256 250 247 248 250 252 257 263 267 272 279 285 289 289 284 280 284 289 289 284 278 278 282 283 285 286 288 293 298 302 297 296 303 296 282 281 286 299 310 310 318 324 318 316 310 301 299 298 295 288 284
263 264 266 268 270 271 272 274 275 276 278 279 280 282 284 287 289 292 296 297 288 285 284 277 270 267 265 260 258 258 260 266 266 264 263 260 257 254 249 248 250 251 253 258 263 266 273 280 285 290 289 281 278 285 289 283 275 273 278 281 280 283 285 287 292 295 295 292 293 292 282 279 283 285 298 305 305 319 326 322 317 309 305 305 301 297 292 289
262 263 264 266 268 269 271 273 274 275 278 278 279 281 283 285 287 290 292 289 290 290 279 267 263 263 260 259 262 263 265 267 264 262 261 255 251 249 247 248 249 251 253 256 260 267 275 280 284 286 282 277 280 285 283 273 268 270 275 277 278 282 282 286 289 290 293 295 292 287 279 273 277 283 295 298 301 320 327 322 320 313 310 309 304 302 300 295
262 262 263 264 266 267 269 271 272 274 275 276 278 280 280 281 284 284 273 250 278 277 266 265 264 263 264 264 264 263 263 263 259 259 257 250 247 247 246 247 247 250 252 253 260 270 276 278 281 280 275 275 280 280 276 271 266 268 272 275 277 280 283 286 286 287 292 289 280 284 279 254 273 284 287 289 301 319 325 323 322 317 314 312 307 306 304 297
262 262 263 263 264 266 267 269 270 271 272 273 275 275 275 276 274 265 236 240 266 266 261 266 266 265 266 265 263 262 260 259 257 254 251 246 246 246 244 247 248 251 253 256 264 272 275 277 276 274 273 275 274 272 273 269 263 265 270 272 276 280 283 284 282 286 293 277 272 284 279 247 272 288 281 286 304 316 321 323 322 319 316 312 308 307 303 297
263 263 263 263 263 264 266 267 268 269 269 270 270 271 270 268 258 231 219 259 269 268 262 263 267 268 269 267 264 262 257 254 251 249 248 247 246 244 243 245 247 252 256 260 268 274 274 274 273 272 272 271 269 268 269 264 260 263 265 269 278 285 288 285 281 280 272 268 281 292 285 247 240 266 279 290 301 314 321 321 322 320 314 310 309 307 302 297
263 263 264 263 263 264 264 266 267 267 267 266 266 265 260 255 239 222 233 258 267 266 259 259 264 265 266 264 260 256 252 249 247 247 250 250 247 247 246 246 247 253 261 265 270 275 276 276 273 273 272 268 265 263 262 258 255 257 257 264 276 303 309 288 266 262 233 258 279 287 292 259 249 266 283 290 297 314 319 319 321 318 311 308 310 307 301 297
262 263 263 263 263 263 263 265 265 264 265 263 261 258 248 240 235 232 237 245 248 257 260 259 261 259 257 257 256 254 249 248 249 249 250 249 248 249 247 246 245 247 258 268 273 277 281 281 276 271 270 265 258 255 255 256 252 249 250 253 250 209 5 278 251 273 256 270 281 276 279 272 267 280 291 291 300 312 315 318 321 315 309 308 308 308 305 301
261 261 260 261 261 261 260 262 262 262 262 258 255 250 235 229 239 242 243 248 253 260 262 261 262 259 254 252 253 252 249 250 253 251 251 250 248 249 246 244 243 246 255 265 271 272 272 276 276 272 266 260 256 252 249 249 246 245 247 245 238 227 218 234 257 258 280 301 297 269 234 265 276 289 294 295 301 308 314 320 321 315 308 306 306 310 311 305
263 261 259 259 258 257 257 256 257 257 255 253 250 241 230 230 237 243 249 254 256 259 261 261 260 256 253 253 251 249 247 249 252 251 251 250 250 252 250 246 244 248 252 255 261 267 261 266 275 270 258 254 255 252 239 235 240 247 244 234 236 241 238 239 260 269 290 314 294 255 244 268 280 289 291 294 300 305 315 319 319 317 307 302 306 311 313 307
264 262 260 258 256 255 254 252 252 251 249 248 242 236 239 243 246 248 253 257 256 259 262 260 256 251 249 250 249 247 246 248 250 249 249 250 253 253 251 250 250 252 254 251 253 262 264 272 278 266 251 249 249 249 240 234 241 246 240 237 244 250 246 241 259 276 286 300 278 267 274 281 289 295 294 297 301 304 313 317 317 314 305 301 306 309 311 308
263 262 261 260 256 252 250 250 249 246 245 242 238 242 249 252 252 253 254 255 256 259 259 255 253 250 247 248 248 248 246 246 248 246 247 249 252 253 251 252 255 255 257 255 254 257 260 268 274 268 256 253 249 245 238 238 244 244 244 249 254 251 244 238 248 293 292 255 273 274 282 287 288 291 295 298 301 303 311 314 313 310 304 304 306 307 310 308
263 262 261 259 255 250 250 249 245 244 242 239 241 247 252 253 254 254 254 256 258 257 255 252 253 254 252 251 251 249 243 241 243 244 246 247 250 256 254 251 254 255 255 252 249 251 252 262 274 271 259 253 247 236 232 235 239 243 249 252 249 240 228 219 212 262 258 182 274 279 288 287 277 276 290 295 297 301 307 309 310 309 305 306 306 305 308 307
262 261 260 259 254 249 249 247 245 243 238 238 242 247 251 253 254 255 256 257 257 253 252 253 253 253 253 253 254 252 245 242 244 243 244 246 249 256 257 252 253 254 252 245 239 243 244 250 269 269 258 247 235 227 229 235 236 239 245 246 244 244 237 226 220 228 226 179 268 291 305 287 282 284 292 295 296 300 304 307 308 308 306 308 307 305 307 309
261 260 261 261 254 247 247 245 243 240 237 242 247 249 251 253 255 257 258 256 254 251 252 253 252 250 252 255 254 253 248 246 247 244 244 247 249 255 259 256 254 253 251 242 233 238 237 236 253 261 252 236 234 238 244 250 247 243 243 242 243 243 238 239 240 238 238 223 261 293 291 280 284 290 291 292 295 298 303 307 307 307 308 309 308 306 307 309
258 258 260 261 255 247 244 241 241 241 241 246 249 249 251 254 257 258 257 254 252 252 252 253 253 252 254 254 252 252 249 248 249 245 244 248 250 254 260 261 258 254 249 241 236 236 234 234 245 251 248 247 253 259 262 261 255 251 252 251 252 251 241 239 250 243 239 234 234 211 259 274 280 287 288 289 293 298 304 306 304 306 308 308 307 307 306 307
256 256 258 258 254 249 243 241 245 245 244 247 250 250 252 255 257 257 256 254 251 251 251 252 253 253 253 253 252 252 251 250 250 248 247 251 255 259 262 263 260 256 252 249 248 246 241 240 245 249 254 259 265 266 261 257 253 249 252 252 253 254 243 234 233 241 239 237 241 235 248 272 279 285 287 289 293 298 302 302 302 305 306 306 306 305 305 305
254 255 256 255 253 249 241 240 244 244 245 249 252 252 253 255 256 257 256 254 251 251 250 251 252 251 250 252 252 252 251 251 252 251 252 257 262 263 262 260 260 259 256 252 248 244 239 238 243 251 258 261 262 262 259 255 249 246 250 251 250 253 250 243 240 242 245 240 239 224 241 270 279 285 286 288 292 297 300 299 301 303 303 304 305 303 304 303
255 254 254 253 251 246 239 240 243 243 247 250 250 251 252 252 254 256 256 254 253 253 252 252 253 252 252 254 253 252 250 248 252 256 257 260 264 264 261 259 260 259 257 255 252 246 239 237 239 247 263 266 260 259 251 245 244 248 254 255 254 256 253 246 242 242 251 251 242 215 242 266 278 284 284 287 291 295 298 297 298 301 302 303 303 302 303 300
254 253 252 251 249 246 244 246 247 247 249 251 250 252 252 252 254 257 257 257 256 254 253 252 253 254 256 255 253 252 250 249 253 258 259 260 261 262 260 258 259 258 259 259 257 252 248 244 240 235 234 244 249 250 243 243 246 250 255 258 258 258 251 243 241 236 245 251 241 231 250 267 277 282 281 285 289 293 296 296 296 299 300 301 302 301 299 296
247 249 250 248 246 246 247 248 247 246 247 248 249 251 251 252 255 257 257 256 255 253 251 252 254 254 254 253 252 252 251 252 252 253 257 258 257 259 260 258 258 258 257 256 253 250 248 248 247 241 237 242 253 260 261 260 260 259 263 266 265 263 255 244 236 234 240 244 238 246 257 267 277 280 279 284 289 290 291 293 295 298 298 299 298 297 295 293
240 244 246 244 242 244 246 246 244 243 243 244 245 249 252 253 255 255 254 254 254 251 250 253 253 249 249 250 249 249 252 253 252 251 255 256 256 258 259 259 260 259 257 254 250 246 243 244 249 248 246 251 259 265 265 264 265 266 269 270 267 266 258 240 234 242 246 236 244 261 265 266 274 281 283 284 287 288 289 292 295 296 295 295 294 293 291 290
239 246 249 246 244 246 248 248 247 245 244 244 245 249 251 253 255 254 254 253 253 250 248 249 251 250 251 250 246 247 251 251 251 251 252 253 255 255 255 259 260 258 256 252 247 244 240 244 253 252 250 256 261 264 263 261 264 266 267 267 265 264 259 247 244 251 249 239 253 268 272 270 275 283 285 286 287 287 290 293 293 292 292 291 292 290 289 288
246 248 248 246 245 248 251 255 256 254 251 250 249 249 250 252 254 254 254 252 251 252 250 249 253 256 254 249 244 244 248 249 250 253 253 253 254 254 255 260 261 258 255 251 248 245 239 245 255 254 251 257 261 262 262 260 260 262 265 267 263 259 261 258 257 259 255 250 259 267 271 274 279 284 288 293 293 289 290 292 289 289 290 289 289 287 286 287
250 249 248 245 243 246 249 252 254 253 253 250 249 250 251 252 253 254 253 251 251 254 252 252 259 261 255 249 245 246 253 256 256 258 259 257 255 257 260 263 264 263 260 255 251 245 239 244 253 252 250 257 260 260 260 258 259 261 265 267 263 258 260 259 259 261 257 255 262 265 265 270 280 291 298 301 297 291 291 290 287 288 287 286 285 283 283 284
253 251 249 245 243 246 247 248 250 250 251 248 247 250 251 251 255 254 253 254 256 257 256 258 264 264 256 250 249 253 260 263 261 264 266 263 262 266 268 268 269 268 265 262 256 247 240 243 249 247 247 256 260 260 259 259 260 262 264 267 264 257 256 258 260 262 258 257 263 262 259 268 285 304 304 298 296 293 292 291 289 287 284 281 279 277 277 276
254 249 248 245 244 245 245 246 248 247 249 251 252 255 255 257 260 258 254 257 259 260 259 261 264 262 255 251 255 261 267 268 268 270 268 263 263 266 266 266 266 265 263 263 259 254 248 246 247 244 242 253 260 260 259 260 262 259 262 268 269 262 259 261 264 266 264 261 260 260 265 279 294 299 295 294 296 296 293 291 288 284 279 275 272 271 270 270
Height
3202 3202 3201 3201 3200 3200 3199 3199 3198 3198 3197 3197 3196 3196 3196 3195 3194 3194 3193 3193 3192 3191 3190 3189 3188 3187 3186 3186 3185 3184 3183 3182 3181 3180 3179 3178 3178 3176 3175 3174 3173 3172 3171 3170 3170 3169 3169 3168 3168 3167 3166 3165 3165 3165 3165 3164 3164 3163 3163 3162 3162 3161 3161 3161 3161 3161 3161 3161 3161 3161 3161 3161 3161 3160 3160 3159 3158 3157 3157 3156 3156 3155 3155 3154 3154 3153 3152 3152
3202 3201 3201 3200 3200 3199 3199 3199 3198 3198 3197 3196 3196 3196 3195 3195 3194 3194 3193 3193 3192 3191 3191 3190 3189 3188 3187 3186 3185 3184 3184 3183 3182 3181 3180 3179 3178 3177 3176 3175 3173 3172 3171 3170 3169 3168 3168 3167 3167 3167 3166 3165 3164 3164 3164 3163 3163 3162 3162 3161 3160 3160 3160 3160 3160 3160 3160 3160 3159 3159 3159 3159 3159 3158 3158 3157 3156 3156 3155 3155 3154 3154 3153 3153 3152 3152 3151 3151
3201 3201 3200 3200 3200 3199 3199 3199 3198 3198 3197 3196 3196 3195 3195 3195 3194 3194 3193 3193 3192 3191 3191 3190 3189 3188 3187 3186 3186 3185 3184 3183 3182 3181 3180 3179 3178 3177 3176 3175 3174 3172 3171 3170 3169 3168 3167 3167 3166 3166 3166 3165 3164 3163 3163 3163 3162 3161 3161 3160 3159 3159 3158 3158 3158 3158 3158 3158 3158 3157 3157 3157 3157 3156 3155 3155 3154 3154 3153 3153 3153 3152 3151 3151 3150 3150 3150 3149
3201 3201 3200 3200 3199 3199 3199 3198 3198 3198 3197 3196 3195 3195 3195 3194 3194 3193 3193 3192 3192 3191 3190 3190 3189 3188 3188 3187 3186 3185 3184 3183 3183 3182 3181 3180 3179 3178 3177 3176 3174 3173 3172 3170 3169 3168 3167 3167 3166 3165 3165 3164 3163 3163 3162 3162 3161 3160 3160 3159 3158 3158 3157 3157 3157 3157 3157 3157 3157 3156 3155 3155 3155 3154 3153 3152 3152 3151 3151 3151 3151 3150 3150 3149 3148 3148 3148 3147
3200 3200 3200 3200 3199 3199 3198 3198 3198 3197 3197 3196 3195 3194 3194 3194 3193 3193 3192 3192 3191 3191 3190 3190 3189 3188 3188 3187 3186 3185 3185 3183 3183 3182 3181 3180 3179 3178 3177 3176 3175 3173 3172 3170 3169 3168 3167 3166 3165 3165 3164 3163 3163 3162 3161 3161 3160 3160 3159 3158 3157 3157 3156 3156 3156 3155 3155 3156 3156 3155 3153 3153 3153 3152 3151 3150 3149 3149 3149 3149 3149 3149 3148 3147 3147 3146 3145 3145
3199 3199 3199 3199 3199 3198 3198 3198 3197 3197 3196 3195 3195 3194 3193 3193 3193 3192 3192 3191 3190 3190 3190 3189 3189 3188 3187 3187 3186 3185 3185 3184 3183 3183 3181 3180 3180 3178 3177 3176 3175 3173 3172 3170 3169 3168 3168 3167 3166 3165 3164 3163 3162 3161 3161 3160 3159 3159 3158 3157 3156 3156 3155 3155 3155 3154 3154 3154 3154 3153 3152 3151 3150 3150 3149 3148 3147 3147 3147 3147 3146 3146 3146 3145 3144 3144 3143 3142
3198 3198 3198 3198 3198 3197 3197 3197 3196 3196 3195 3195 3194 3193 3192 3192 3192 3191 3191 3190 3190 3189 3189 3188 3188 3187 3187 3186 3186 3185 3184 3184 3183 3182 3181 3181 3180 3178 3177 3176 3175 3174 3172 3170 3169 3169 3168 3167 3166 3165 3164 3163 3162 3161 3160 3159 3158 3158 3157 3156 3156 3155 3155 3154 3154 3153 3153 3153 3152 3152 3150 3150 3149 3148 3146 3146 3146 3145 3145 3144 3144 3144 3143 3143 3142 3141 3140 3139
3197 3197 3197 3197 3197 3196 3196 3196 3196 3195 3194 3194 3193 3193 3192 3191 3190 3190 3190 3189 3189 3188 3188 3187 3187 3187 3186 3185 3185 3184 3184 3183 3183 3182 3181 3180 3179 3178 3177 3176 3175 3174 3172 3171 3170 3169 3168 3167 3166 3165 3164 3163 3162 3161 3159 3159 3158 3157 3157 3156 3155 3154 3154 3153 3153 3152 3152 3151 3151 3150 3149 3148 3147 3146 3144 3144 3144 3143 3142 3142 3141 3141 3140 3140 3139 3138 3137 3136
3195 3195 3195 3195 3195 3195 3195 3195 3195 3194 3193 3193 3192 3192 3191 3190 3189 3189 3189 3188 3187 3187 3187 3186 3186 3185 3185 3184 3184 3183 3183 3182 3182 3181 3180 3180 3179 3178 3177 3176 3175 3173 3172 3171 3169 3168 3167 3166 3165 3165 3164 3163 3162 3160 3159 3158 3157 3156 3156 3155 3154 3153 3152 3152 3151 3151 3150 3150 3149 3148 3147 3146 3146 3144 3142 3142 3142 3141 3140 3139 3138 3138 3137 3137 3136 3135 3134 3133
3193 3193 3193 3193 3194 3193 3193 3193 3193 3193 3192 3191 3191 3190 3190 3189 3188 3188 3187 3187 3186 3186 3185 3185 3185 3184 3184 3183 3183 3182 3182 3181 3181 3180 3179 3179 3178 3177 3177 3176 3174 3173 3172 3171 3169 3168 3167 3166 3165 3164 3163 3162 3161 3160 3159 3158 3157 3155 3155 3154 3154 3152 3151 3150 3150 3149 3149 3148 3147 3146 3145 3145 3144 3142 3141 3140 3140 3139 3137 3136 3135 3135 3134 3133 3132 3132 3131 3130
3191 3191 3191 3192 3192 3192 3192 3191 3191 3191 3191 3190 3189 3189 3188 3188 3187 3187 3186 3186 3185 3184 3184 3183 3183 3183 3182 3182 3181 3181 3180 3180 3179 3179 3178 3178 3177 3176 3176 3175 3174 3173 3171 3170 3169 3168 3166 3165 3164 3163 3163 3162 3161 3160 3158 3157 3156 3155 3154 3153 3152 3151 3150 3149 3148 3148 3147 3146 3146 3145 3143 3142 3141 3139 3139 3139 3137 3136 3135 3134 3133 3132 3131 3130 3129 3128 3127 3126
3189 3189 3189 3189 3190 3190 3190 3190 3189 3189 3189 3189 3188 3187 3187 3186 3186 3185 3185 3184 3184 3183 3182 3182 3181 3181 3180 3180 3180 3179 3179 3178 3178 3177 3177 3176 3176 3175 3174 3174 3173 3172 3171 3170 3169 3167 3166 3165 3164 3163 3162 3161 3160 3159 3158 3157 3155 3154 3153 3152 3151 3150 3149 3148 3147 3147 3146 3145 3145 3144 3141 3138 3138 3138 3138 3137 3134 3133 3132 3131 3131 3129 3128 3127 3126 3124 3123 3122
3188 3188 3188 3188 3188 3188 3188 3187 3187 3187 3187 3187 3186 3186 3185 3185 3184 3183 3183 3183 3182 3181 3181 3180 3179 3179 3178 3178 3178 3177 3177 3176 3176 3176 3175 3175 3174 3173 3173 3172 3172 3171 3170 3169 3168 3167 3165 3164 3163 3162 3161 3160 3159 3158 3157 3156 3154 3153 3152 3150 3149 3149 3148 3147 3146 3145 3144 3143 3143 3144 3138 3133 3135 3136 3135 3134 3132 3130 3129 3128 3128 3126 3125 3124 3122 3121 3119 3119
3186 3186 3186 3186 3186 3186 3186 3186 3186 3185 3185 3185 3185 3184 3184 3183 3182 3182 3181 3181 3180 3180 3179 3178 3178 3177 3176 3176 3176 3175 3175 3174 3174 3174 3173 3173 3172 3172 3171 3170 3170 3170 3169 3168 3167 3166 3164 3163 3162 3161 3160 3158 3158 3157 3156 3154 3153 3152 3151 3149 3148 3147 3146 3145 3144 3143 3142 3141 3140 3141 3136 3130 3133 3134 3132 3130 3129 3128 3126 3125 3124 3123 3122 3120 3119 3117 3116 3115
3184 3184 3184 3184 3184 3184 3184 3184 3184 3184 3183 3183 3183 3182 3182 3181 3181 3180 3180 3179 3179 3178 3177 3177 3176 3175 3174 3174 3174 3173 3173 3172 3172 3172 3171 3171 3170 3170 3169 3168 3168 3168 3167 3166 3165 3164 3163 3162 3161 3160 3159 3157 3156 3155 3154 3153 3152 3151 3149 3148 3147 3146 3144 3143 3143 3141 3140 3139 3137 3138 3133 3127 3129 3131 3129 3127 3125 3124 3122 3121 3120 3119 3118 3116 3115 3114 3113 3112
3181 3182 3182 3182 3182 3182 3182 3182 3182 3182 3181 3181 3181 3180 3180 3179 3179 3178 3177 3177 3177 3176 3175 3175 3174 3173 3172 3172 3172 3171 3171 3171 3170 3170 3169 3169 3168 3168 3167 3166 3166 3166 3165 3165 3164 3163 3162 3161 3160 3158 3157 3156 3155 3154 3153 3151 3150 3149 3148 3146 3145 3144 3143 3142 3141 3140 3138 3137 3135 3134 3130 3125 3127 3128 3126 3124 3122 3120 3118 3117 3116 3114 3113 3112 3112 3111 3109 3108
3179 3179 3180 3180 3180 3180 3180 3180 3180 3180 3179 3179 3179 3178 3178 3177 3176 3176 3175 3175 3174 3174 3173 3172 3172 3171 3170 3170 3169 3169 3169 3169 3168 3168 3167 3166 3166 3165 3165 3164 3164 3163 3163 3163 3162 3161 3160 3160 3158 3157 3156 3155 3154 3153 3151 3149 3148 3147 3146 3144 3143 3142 3141 3140 3139 3138 3137 3135 3132 3130 3127 3124 3125 3125 3123 3121 3119 3117 3114 3113 3112 3111 3109 3108 3107 3107 3105 3104
3176 3177 3177 3177 3177 3178 3178 3178 3178 3177 3177 3177 3176 3176 3176 3175 3174 3173 3173 3172 3172 3171 3171 3170 3170 3168 3168 3168 3167 3167 3167 3166 3166 3165 3164 3163 3163 3163 3162 3162 3162 3161 3161 3160 3160 3159 3158 3157 3156 3155 3154 3153 3152 3151 3150 3148 3146 3145 3144 3142 3140 3140 3138 3137 3137 3136 3134 3132 3130 3128 3125 3123 3123 3123 3121 3118 3117 3114 3111 3111 3109 3107 3105 3104 3103 3103 3102 3100
3174 3174 3174 3174 3174 3175 3175 3175 3175 3174 3175 3174 3174 3173 3173 3172 3171 3171 3170 3170 3169 3169 3168 3168 3167 3166 3166 3165 3165 3164 3164 3163 3163 3162 3161 3160 3160 3160 3159 3159 3159 3159 3158 3158 3157 3157 3156 3155 3154 3153 3152 3151 3150 3149 3148 3147 3145 3144 3142 3140 3138 3137 3135 3135 3134 3132 3131 3128 3127 3125 3123 3121 3120 3119 3118 3116 3113 3110 3108 3108 3106 3103 3102 3101 3100 3099 3098 3096
3171 3171 3171 3171 3171 3171 3172 3172 3172 3172 3172 3172 3171 3171 3170 3169 3169 3168 3167 3167 3167 3166 3166 3165 3165 3164 3164 3163 3162 3161 3161 3160 3159 3159 3158 3157 3157 3156 3156 3156 3156 3156 3156 3155 3155 3155 3154 3153 3152 3151 3150 3149 3148 3147 3146 3145 3143 3142 3140 3138 3136 3134 3133 3133 3132 3130 3128 3123 3121 3121 3119 3117 3116 3114 3114 3112 3109 3105 3103 3103 3101 3099 3099 3097 3096 3095 3094 3093
3168 3168 3168 3168 3168 3169 3169 3169 3169 3169 3169 3168 3168 3168 3167 3166 3166 3165 3163 3163 3164 3163 3163 3163 3162 3161 3161 3160 3159 3158 3157 3157 3156 3156 3155 3154 3153 3153 3153 3153 3153 3153 3153 3153 3153 3152 3151 3150 3150 3149 3147 3146 3145 3145 3143 3142 3141 3139 3138 3136 3134 3132 3130 3131 3130 3127 3126 3120 3117 3117 3114 3111 3112 3110 3109 3107 3104 3101 3100 3098 3096 3095 3094 3093 3092 3091 3090 3089
3165 3165 3165 3165 3165 3166 3166 3166 3166 3166 3166 3166 3166 3165 3164 3163 3162 3162 3160 3159 3160 3160 3160 3159 3159 3158 3158 3157 3156 3155 3154 3153 3153 3152 3151 3150 3150 3149 3150 3150 3150 3150 3150 3150 3150 3149 3148 3148 3148 3147 3145 3144 3143 3142 3141 3140 3138 3136 3135 3133 3131 3130 3128 3127 3127 3124 3123 3118 3112 3112 3107 3103 3106 3106 3104 3102 3099 3098 3097 3094 3093 3091 3090 3089 3088 3087 3086 3085
3161 3162 3162 3162 3162 3163 3163 3163 3163 3163 3163 3163 3163 3162 3161 3160 3160 3158 3157 3154 3154 3156 3156 3155 3155 3155 3155 3154 3153 3152 3150 3150 3149 3148 3148 3147 3147 3147 3147 3147 3147 3147 3148 3148 3148 3147 3146 3145 3145 3144 3143 3142 3141 3140 3138 3137 3136 3134 3132 3130 3128 3128 3127 3123 3123 3122 3120 3117 3111 3107 3099 3094 3099 3100 3100 3099 3095 3095 3094 3090 3089 3087 3086 3085 3084 3083 3082 3081
3158 3159 3159 3159 3159 3159 3159 3160 3160 3160 3160 3160 3160 3159 3158 3158 3156 3155 3154 3151 3149 3150 3151 3152 3152 3151 3151 3150 3149 3148 3147 3147 3146 3145 3146 3145 3144 3145 3144 3145 3145 3145 3145 3145 3145 3144 3143 3143 3142 3142 3141 3139 3138 3137 3136 3134 3133 3132 3130 3128 3126 3126 3125 3121 3119 3117 3116 3115 3111 3104 3089 3081 3089 3093 3093 3095 3092 3091 3090 3086 3085 3083 3082 3081 3080 3079 3078 3076
3155 3156 3155 3156 3156 3156 3156 3156 3157 3157 3157 3158 3157 3156 3156 3155 3153 3152 3151 3147 3144 3145 3147 3147 3147 3148 3147 3147 3146 3145 3144 3144 3144 3143 3143 3142 3142 3142 3142 3143 3142 3142 3143 3142 3142 3141 3140 3140 3139 3139 3138 3137 3136 3134 3134 3132 3130 3129 3127 3126 3124 3123 3122 3120 3118 3114 3110 3109 3109 3108 3092 3073 3077 3085 3086 3089 3089 3087 3087 3083 3081 3080 3078 3077 3076 3075 3074 3072
3151 3152 3152 3152 3153 3153 3153 3152 3154 3154 3154 3154 3154 3153 3153 3152 3151 3149 3148 3144 3139 3140 3143 3142 3142 3143 3143 3143 3143 3142 3141 3141 3141 3141 3141 3140 3140 3140 3140 3140 3140 3140 3140 3140 3139 3138 3137 3137 3137 3136 3135 3134 3133 3131 3131 3130 3127 3125 3124 3124 3123 3121 3119 3118 3116 3113 3109 3105 3105 3111 3103 3078 3068 3075 3080 3083 3084 3083 3083 3080 3078 3077 3075 3073 3073 3071 3070 3068
3148 3148 3148 3148 3149 3150 3149 3149 3151 3150 3151 3151 3150 3150 3149 3149 3148 3147 3147 3143 3135 3135 3139 3138 3138 3139 3139 3140 3140 3139 3138 3138 3139 3138 3138 3138 3137 3138 3137 3137 3137 3137 3138 3138 3136 3135 3134 3134 3133 3133 3132 3131 3129 3128 3129 3127 3124 3122 3121 3122 3120 3118 3118 3115 3113 3112 3107 3102 3100 3104 3106 3088 3064 3064 3073 3077 3079 3079 3078 3077 3074 3073 3071 3069 3068 3067 3066 3065
3143 3144 3143 3144 3145 3145 3145 3146 3147 3147 3147 3147 3146 3147 3146 3146 3145 3144 3146 3142 3132 3131 3134 3134 3135 3135 3136 3137 3137 3136 3135 3135 3136 3135 3135 3135 3134 3135 3134 3134 3135 3134 3135 3134 3131 3131 3132 3130 3130 3129 3128 3127 3126 3126 3125 3124 3121 3119 3119 3119 3117 3117 3116 3113 3111 3109 3105 3100 3094 3093 3101 3093 3064 3057 3069 3071 3072 3074 3072 3072 3071 3068 3067 3065 3064 3063 3062 3062
3139 3139 3139 3139 3140 3141 3141 3141 3142 3143 3143 3142 3143 3143 3142 3143 3142 3142 3144 3138 3128 3129 3131 3131 3132 3132 3133 3133 3133 3133 3132 3132 3132 3131 3132 3132 3131 3132 3131 3131 3132 3131 3131 3130 3127 3128 3128 3126 3126 3126 3124 3123 3123 3123 3121 3120 3119 3117 3117 3116 3115 3115 3112 3112 3108 3106 3105 3098 3089 3086 3094 3091 3064 3052 3064 3067 3067 3070 3067 3067 3066 3064 3063 3060 3059 3059 3058 3057
3134 3134 3135 3135 3135 3137 3137 3137 3138 3139 3139 3139 3139 3139 3139 3139 3138 3140 3139 3131 3125 3127 3128 3128 3128 3129 3129 3129 3129 3129 3129 3129 3129 3128 3129 3128 3128 3129 3128 3128 3129 3127 3127 3126 3124 3124 3123 3122 3122 3121 3121 3120 3120 3119 3118 3118 3116 3115 3115 3113 3113 3112 3110 3109 3105 3104 3104 3092 3082 3083 3088 3089 3069 3049 3054 3061 3063 3065 3063 3061 3061 3059 3058 3056 3055 3055 3054 3053
3129 3129 3130 3130 3131 3132 3132 3133 3134 3134 3135 3135 3135 3135 3135 3134 3135 3134 3128 3123 3123 3123 3123 3125 3125 3125 3125 3125 3125 3125 3125 3125 3125 3125 3125 3125 3125 3124 3124 3125 3125 3124 3122 3121 3120 3119 3118 3118 3117 3117 3117 3116 3116 3115 3114 3114 3113 3113 3113 3111 3111 3111 3108 3105 3101 3103 3102 3086 3078 3081 3083 3085 3070 3047 3048 3055 3057 3061 3059 3056 3056 3055 3053 3052 3051 3051 3050 3049
3124 3124 3125 3125 3126 3127 3128 3129 3130 3130 3130 3131 3132 3131 3131 3131 3127 3121 3118 3121 3122 3118 3118 3122 3121 3122 3122 3121 3121 3122 3122 3122 3122 3122 3121 3121 3120 3120 3121 3121 3122 3122 3118 3116 3116 3114 3112 3112 3113 3113 3112 3112 3112 3111 3111 3110 3110 3110 3110 3110 3111 3111 3109 3105 3099 3099 3095 3082 3077 3080 3081 3075 3056 3042 3047 3051 3052 3055 3055 3053 3051 3050 3048 3047 3047 3046 3045 3044
3118 3119 3120 3120 3121 3122 3123 3124 3125 3126 3126 3127 3127 3126 3128 3125 3113 3108 3114 3119 3118 3114 3115 3118 3118 3119 3119 3117 3117 3119 3118 3118 3118 3119 3118 3117 3116 3116 3117 3117 3118 3118 3114 3113 3113 3111 3108 3105 3107 3108 3107 3107 3107 3107 3108 3107 3107 3108 3107 3109 3109 3111 3112 3105 3098 3094 3086 3078 3076 3079 3079 3063 3041 3037 3043 3044 3047 3050 3049 3049 3047 3045 3044 3043 3042 3042 3040 3039
3113 3114 3114 3114 3116 3117 3118 3119 3120 3120 3122 3123 3122 3122 3122 3113 3101 3103 3110 3111 3112 3113 3113 3114 3115 3114 3114 3113 3114 3115 3115 3115 3114 3114 3114 3112 3111 3110 3111 3112 3114 3114 3113 3112 3110 3108 3106 3100 3101 3104 3102 3102 3103 3103 3105 3104 3105 3105 3104 3106 3105 3105 3107 3100 3095 3090 3083 3077 3072 3074 3072 3052 3035 3035 3036 3037 3042 3045 3044 3044 3042 3040 3039 3039 3037 3037 3035 3034
3107 3107 3108 3109 3110 3111 3113 3114 3113 3115 3116 3116 3117 3116 3107 3097 3095 3100 3103 3105 3110 3110 3109 3110 3110 3110 3109 3109 3110 3111 3112 3111 3110 3110 3109 3107 3105 3104 3104 3107 3109 3110 3110 3110 3108 3105 3102 3096 3096 3099 3098 3099 3100 3100 3102 3102 3102 3101 3100 3101 3099 3098 3099 3097 3093 3088 3085 3082 3070 3064 3057 3041 3033 3031 3029 3034 3036 3037 3040 3038 3037 3037 3035 3035 3034 3032 3031 3029
3101 3101 3102 3103 3105 3106 3107 3108 3107 3109 3110 3110 3111 3102 3088 3086 3092 3096 3098 3102 3106 3106 3106 3106 3105 3105 3105 3104 3104 3106 3107 3107 3105 3105 3104 3102 3101 3098 3098 3102 3104 3105 3105 3106 3105 3103 3098 3093 3092 3095 3095 3096 3096 3096 3098 3098 3098 3097 3095 3095 3093 3094 3095 3094 3092 3087 3089 3087 3068 3055 3046 3034 3031 3025 3018 3026 3029 3029 3035 3033 3032 3033 3030 3031 3030 3027 3027 3025
3095 3095 3095 3097 3101 3102 3101 3102 3103 3102 3103 3104 3099 3085 3077 3082 3087 3090 3094 3097 3100 3102 3103 3101 3099 3099 3098 3097 3098 3100 3102 3102 3100 3100 3099 3098 3095 3091 3093 3097 3098 3099 3100 3102 3102 3100 3097 3092 3089 3091 3091 3091 3093 3093 3094 3094 3093 3092 3091 3090 3090 3091 3091 3092 3092 3088 3090 3087 3066 3053 3047 3034 3030 3023 3012 3018 3023 3023 3028 3028 3026 3028 3026 3026 3025 3022 3022 3020
3090 3089 3087 3091 3096 3096 3095 3097 3096 3096 3098 3095 3085 3075 3074 3077 3080 3085 3090 3092 3095 3098 3097 3095 3093 3093 3092 3091 3091 3094 3097 3096 3094 3095 3094 3093 3089 3085 3088 3092 3093 3094 3096 3098 3098 3096 3095 3091 3087 3086 3086 3087 3088 3089 3088 3088 3089 3088 3087 3088 3087 3087 3087 3088 3090 3086 3086 3085 3066 3053 3049 3030 3020 3021 3015 3014 3019 3020 3023 3023 3022 3023 3022 3021 3020 3018 3017 3015
3083 3081 3079 3085 3090 3090 3090 3091 3090 3092 3091 3082 3073 3069 3069 3070 3073 3080 3085 3088 3090 3090 3089 3087 3088 3088 3086 3085 3087 3089 3090 3089 3089 3090 3088 3087 3083 3081 3084 3087 3088 3090 3091 3093 3093 3091 3093 3091 3085 3081 3080 3082 3083 3082 3082 3081 3084 3085 3084 3084 3082 3082 3084 3082 3084 3080 3077 3079 3066 3057 3051 3022 3003 3014 3016 3012 3014 3016 3018 3018 3017 3018 3017 3016 3015 3013 3012 3010
3076 3074 3072 3078 3084 3084 3084 3085 3084 3083 3077 3068 3065 3065 3063 3064 3070 3075 3079 3082 3083 3083 3081 3081 3083 3083 3080 3080 3081 3082 3083 3083 3083 3084 3082 3080 3078 3076 3080 3082 3083 3086 3087 3088 3088 3087 3089 3087 3082 3077 3077 3077 3074 3074 3075 3077 3080 3081 3079 3078 3076 3078 3080 3077 3077 3074 3071 3074 3066 3062 3055 3018 2995 3008 3011 3007 3010 3012 3013 3013 3011 3012 3011 3010 3010 3008 3007 3006
3070 3067 3065 3070 3075 3077 3079 3077 3074 3071 3065 3060 3060 3059 3059 3062 3065 3068 3072 3075 3076 3076 3076 3076 3077 3076 3075 3076 3075 3076 3078 3077 3077 3077 3075 3073 3073 3072 3074 3076 3078 3081 3082 3083 3083 3082 3083 3082 3078 3074 3070 3068 3066 3069 3072 3074 3076 3076 3073 3072 3071 3073 3075 3073 3072 3066 3066 3067 3058 3061 3054 3012 2992 3006 3006 3003 3007 3007 3008 3008 3005 3006 3006 3005 3004 3003 3002 3000
3062 3060 3060 3063 3066 3069 3071 3067 3065 3063 3056 3052 3054 3056 3057 3058 3059 3061 3065 3068 3069 3070 3071 3070 3069 3069 3069 3069 3070 3072 3073 3071 3070 3069 3067 3066 3067 3067 3070 3072 3074 3076 3077 3078 3078 3078 3079 3077 3073 3068 3064 3063 3064 3067 3068 3069 3071 3071 3068 3065 3066 3068 3067 3066 3064 3058 3059 3058 3050 3059 3048 3001 2986 3004 3003 2999 3004 3003 3004 3003 3000 3002 3001 3000 2999 2997 2997 2995
3054 3054 3056 3058 3057 3060 3062 3059 3057 3053 3047 3047 3051 3052 3053 3054 3053 3055 3058 3060 3062 3063 3064 3062 3061 3061 3062 3063 3065 3066 3066 3065 3062 3061 3061 3061 3060 3062 3066 3068 3069 3071 3072 3072 3072 3074 3074 3072 3068 3063 3061 3060 3061 3061 3061 3063 3065 3063 3059 3058 3059 3058 3056 3056 3055 3053 3054 3049 3046 3056 3037 2991 2983 3001 2998 2996 3000 2999 2999 2998 2996 2997 2995 2995 2994 2992 2991 2990
3047 3048 3050 3051 3050 3051 3049 3046 3046 3043 3041 3045 3046 3046 3047 3048 3047 3048 3049 3051 3054 3055 3055 3054 3054 3056 3057 3059 3060 3059 3060 3060 3056 3055 3057 3055 3054 3056 3059 3062 3063 3064 3064 3064 3065 3068 3067 3065 3064 3062 3060 3058 3056 3055 3054 3055 3056 3053 3049 3051 3051 3050 3052 3052 3051 3053 3048 3038 3042 3048 3020 2985 2986 2997 2994 2994 2996 2994 2994 2993 2991 2991 2990 2989 2989 2987 2986 2984
3040 3040 3041 3041 3041 3039 3037 3037 3039 3039 3039 3040 3038 3039 3041 3040 3039 3042 3043 3043 3045 3047 3047 3047 3049 3052 3053 3055 3054 3053 3054 3054 3052 3050 3050 3048 3047 3049 3052 3055 3057 3056 3057 3058 3060 3061 3060 3059 3058 3055 3055 3053 3047 3044 3044 3045 3047 3045 3042 3043 3044 3044 3046 3044 3046 3049 3037 3028 3036 3031 3002 2984 2988 2993 2992 2992 2991 2989 2989 2988 2987 2986 2985 2984 2983 2982 2981 2979
3031 3029 3030 3031 3029 3028 3028 3031 3033 3032 3033 3034 3032 3033 3034 3031 3032 3036 3036 3034 3036 3038 3040 3042 3045 3047 3047 3047 3047 3046 3046 3047 3047 3045 3042 3041 3041 3043 3046 3049 3050 3051 3051 3052 3053 3054 3053 3050 3048 3045 3043 3040 3034 3033 3038 3039 3040 3039 3036 3036 3038 3037 3037 3038 3040 3035 3025 3024 3025 3009 2993 2989 2984 2982 2989 2989 2986 2984 2983 2983 2983 2981 2980 2979 2978 2977 2975 2974
3022 3019 3019 3021 3020 3019 3019 3022 3023 3022 3025 3027 3026 3025 3025 3024 3026 3029 3028 3026 3028 3032 3035 3036 3038 3038 3037 3038 3039 3038 3039 3040 3040 3037 3034 3035 3036 3038 3041 3042 3043 3044 3045 3046 3048 3047 3045 3041 3038 3036 3034 3031 3029 3030 3035 3035 3034 3033 3031 3030 3030 3029 3030 3031 3027 3018 3019 3025 3011 2990 2992 2994 2976 2972 2983 2984 2981 2980 2977 2977 2977 2975 2974 2973 2972 2971 2969 2968
3014 3012 3012 3013 3013 3010 3009 3010 3013 3016 3019 3021 3019 3019 3019 3019 3019 3018 3018 3020 3023 3026 3027 3027 3026 3025 3026 3030 3032 3033 3034 3035 3032 3028 3027 3030 3032 3033 3035 3036 3037 3037 3039 3041 3040 3040 3039 3033 3030 3030 3028 3026 3026 3026 3030 3031 3028 3027 3026 3022 3022 3023 3021 3018 3012 3009 3016 3016 2996 2982 2990 2989 2971 2966 2974 2976 2977 2976 2972 2972 2971 2969 2969 2967 2966 2965 2963 2962
3006 3006 3006 3006 3004 3004 3003 3006 3010 3012 3013 3015 3013 3013 3013 3010 3009 3009 3012 3015 3015 3016 3018 3016 3014 3016 3020 3025 3028 3028 3029 3026 3020 3018 3021 3024 3027 3029 3030 3031 3031 3030 3033 3034 3032 3034 3033 3025 3024 3027 3024 3021 3020 3020 3024 3026 3022 3021 3017 3012 3013 3016 3012 3006 3003 3004 3007 3002 2988 2983 2986 2978 2963 2961 2966 2969 2972 2971 2967 2966 2965 2963 2963 2961 2960 2958 2956 2957
2996 2997 2999 2998 2997 2999 3001 3002 3004 3003 3005 3009 3007 3004 3004 3002 3002 3005 3007 3007 3006 3007 3009 3007 3007 3012 3016 3020 3023 3019 3016 3014 3012 3015 3020 3021 3023 3026 3026 3025 3025 3025 3026 3026 3026 3027 3025 3019 3020 3023 3019 3014 3012 3014 3019 3019 3016 3016 3008 2998 3003 3008 3003 2999 2997 2996 2996 2991 2982 2982 2982 2968 2954 2957 2963 2964 2964 2964 2961 2959 2958 2957 2957 2955 2953 2952 2951 2951
2990 2991 2994 2993 2990 2991 2993 2995 2997 2996 2996 2998 2995 2994 2995 2994 2997 3001 3000 2999 3000 3001 3001 3001 3004 3010 3013 3014 3014 3007 3004 3009 3012 3016 3018 3017 3018 3021 3020 3020 3021 3021 3020 3019 3018 3018 3018 3015 3016 3018 3015 3007 3005 3010 3013 3011 3013 3012 2995 2982 2988 2995 2992 2989 2987 2984 2983 2980 2977 2977 2973 2958 2949 2956 2960 2957 2956 2956 2954 2953 2953 2951 2950 2949 2947 2946 2946 2945
2987 2985 2987 2988 2984 2983 2986 2987 2989 2988 2985 2985 2986 2987 2990 2990 2995 3000 2996 2992 2994 2995 2998 2999 3001 3005 3006 3003 2999 2997 3001 3008 3011 3013 3015 3013 3013 3016 3015 3015 3016 3014 3013 3013 3012 3011 3011 3009 3009 3012 3009 3003 3003 3006 3005 3008 3012 2998 2975 2968 2976 2982 2981 2980 2977 2974 2974 2973 2971 2967 2958 2950 2950 2954 2954 2951 2951 2950 2947 2947 2947 2945 2945 2943 2941 2941 2941 2940